Tracking 30402 objects as of 13-May-2025
HD Live streaming from Space Station
objects crossing your sky now

SL-12 R/B(2)

Track SL-12 R/B(2) now!


NORAD ID: 26557
Int'l Code: 2000-059D
Perigee: 7,175.7 km
Apogee: 35,813.7 km
Inclination: 14.5 °
Period: 771.5 minutes
Semi major axis: 27865 km
RCS: 24.2849 m2 (large)
Launch date: October 1, 2000
Source: Commonwealth of Independent States (former USSR) (CIS)
Launch site: TYURATAM MISSILE AND SPACE COMPLEX (TTMTR)

Note: This is a ROCKET BODY
Your satellite tracking list
Your tracking list is empty




NASA's NSSDC Master Catalog

Two Line Element Set (TLE):
1 26557U 00059D   25132.43194987 -.00000069  00000-0  00000-0 0  9993
2 26557  14.4582 117.6418 5138571 348.8964 177.4769  1.86637367167788
Source of the keplerian elements: AFSPC